Location: New Canada
(47.1017°N, 68.5042°W)
Time: 14:45:13
(UTC+00:00)

UNISAT 6 - Visible Passes

Search period start: 27 March 2023 00:00
Search period end: 06 April 2023 00:00
Orbit: 602 x 680 km, 97.7° (Epoch: 26 March)

Date Brightness Start Highest point End Pass type
(mag) Time Alt. Az. Time Alt. Az. Time Alt. Az.
27 Mar ? 08:08:02 10° ESE 08:11:16 21° ENE 08:14:34 10° NNE visible
27 Mar ? 09:43:16 10° S 09:47:29 48° W 09:51:51 10° NNW visible
28 Mar ? 08:30:56 10° SE 08:34:51 33° ENE 08:38:53 10° N visible
28 Mar ? 23:31:06 10° NNW 23:34:42 22° WNW 23:38:17 10° WSW visible
29 Mar ? 08:54:14 10° SSE 08:58:32 55° ENE 09:02:57 10° N visible
29 Mar ? 23:55:44 10° NNW 23:58:13 14° WNW 00:00:41 10° W visible
30 Mar ? 07:44:25 10° E 07:46:25 13° ENE 07:48:26 10° NNE visible
30 Mar ? 09:17:52 10° SSE 09:22:16 86° WSW 09:26:49 10° NNW visible
31 Mar ? 08:06:38 10° ESE 08:09:53 20° ENE 08:13:13 10° NNE visible
31 Mar ? 09:41:49 10° S 09:46:06 50° W 09:50:31 10° NNW visible
01 Apr ? 08:29:30 10° SE 08:33:27 32° ENE 08:37:30 10° N visible
01 Apr ? 23:29:41 10° NNW 23:33:18 23° WNW 23:36:54 10° WSW visible
02 Apr ? 08:52:45 10° SSE 08:57:05 54° ENE 09:01:33 10° N visible
02 Apr ? 23:54:15 10° NNW 23:56:47 15° WNW 23:59:19 10° W visible
03 Apr ? 07:42:56 10° E 07:44:58 13° ENE 07:47:00 10° NNE visible
03 Apr ? 09:16:21 10° SSE 09:20:48 88° W 09:25:23 10° NNW visible
04 Apr ? 08:05:07 10° ESE 08:08:24 20° ENE 08:11:46 10° NNE visible
05 Apr ? 08:27:57 10° SE 08:31:56 32° ENE 08:36:00 10° N visible
